| time (UTC) | temp F | wind direction | speed MPH | gust MPH | rain 1hr in | rain 24hr in | rain mn in | humidity % | barometer mb |
| 20260505180915 | 58 | 280 | 0.0 | 2.0 | 0.00 | 0.00 | 0.00 | 75 | 1016.4 |
| 20260505180414 | 58 | 285 | 1.0 | 3.0 | 0.00 | 0.00 | 0.00 | 76 | 1016.4 |
| 20260505175919 | 58 | 270 | 1.0 | 4.0 | 0.00 | 0.00 | 0.00 | 78 | 1016.4 |
| 20260505175915 | 58 | 288 | 1.0 | 3.0 | 0.00 | 0.00 | 0.00 | 76 | 1016.4 |
| 20260505174914 | 57 | 350 | 1.0 | 4.0 | 0.00 | 0.00 | 0.00 | 76 | 1016.4 |
| 20260505174414 | 57 | 315 | 1.0 | 2.0 | 0.00 | 0.00 | 0.00 | 78 | 1016.3 |
| 20260505173914 | 57 | 296 | 1.0 | 3.0 | 0.00 | 0.00 | 0.00 | 77 | 1016.3 |
| 20260505173414 | 57 | 296 | 2.0 | 3.0 | 0.00 | 0.00 | 0.00 | 77 | 1016.4 |
| 20260505172914 | 57 | 294 | 1.0 | 3.0 | 0.00 | 0.00 | 0.00 | 80 | 1016.3 |
| 20260505172415 | 57 | 231 | 1.0 | 3.0 | 0.00 | 0.00 | 0.00 | 79 | 1016.3 |
| 20260505171915 | 57 | 306 | 1.0 | 3.0 | 0.00 | 0.00 | 0.00 | 78 | 1016.2 |
| 20260505171413 | 57 | 355 | 2.0 | 4.0 | 0.00 | 0.00 | 0.00 | 78 | 1016.3 |
| 20260505170913 | 57 | 0 | 1.0 | 4.0 | 0.00 | 0.00 | 0.00 | 80 | 1016.2 |
| 20260505170413 | 57 | 13 | 1.0 | 4.0 | 0.00 | 0.00 | 0.00 | 79 | 1016.3 |
| 20260505165914 | 57 | 355 | 1.0 | 3.0 | 0.00 | 0.00 | 0.00 | 78 | 1016.2 |
| 20260505165414 | 57 | 12 | 2.0 | 3.0 | 0.00 | 0.00 | 0.00 | 79 | 1016.1 |
| 20260505164915 | 57 | 0 | 2.0 | 4.0 | 0.00 | 0.00 | 0.00 | 79 | 1016.1 |
| 20260505164413 | 57 | 294 | 2.0 | 4.0 | 0.00 | 0.00 | 0.00 | 80 | 1016.1 |
| 20260505163914 | 56 | 350 | 2.0 | 4.0 | 0.00 | 0.00 | 0.00 | 81 | 1016.1 |
| 20260505163413 | 56 | 325 | 2.0 | 4.0 | 0.00 | 0.00 | 0.00 | 79 | 1016.1 |
| 20260505162913 | 56 | 302 | 1.0 | 4.0 | 0.00 | 0.00 | 0.00 | 79 | 1016.0 |
| 20260505162415 | 56 | 301 | 1.0 | 4.0 | 0.00 | 0.00 | 0.00 | 79 | 1016.1 |
| 20260505161913 | 56 | 332 | 1.0 | 3.0 | 0.00 | 0.00 | 0.00 | 80 | 1016.0 |
| 20260505161415 | 56 | 315 | 1.0 | 3.0 | 0.00 | 0.00 | 0.00 | 81 | 1016.0 |
| 20260505160913 | 56 | 292 | 1.0 | 3.0 | 0.00 | 0.00 | 0.00 | 81 | 1016.0 |
| 20260505160414 | 56 | 309 | 2.0 | 4.0 | 0.00 | 0.00 | 0.00 | 81 | 1016.0 |
| 20260505152913 | 55 | 236 | 0.0 | 2.0 | 0.00 | 0.00 | 0.00 | 83 | 1016.0 |
| 20260505152409 | 55 | 197 | 0.0 | 2.0 | 0.00 | 0.00 | 0.00 | 82 | 1016.0 |
| 20260505151911 | 55 | 197 | 0.0 | 2.0 | 0.00 | 0.00 | 0.00 | 82 | 1016.0 |
| 20260505151409 | 54 | 196 | 0.0 | 2.0 | 0.00 | 0.00 | 0.00 | 83 | 1016.0 |
| 20260505150909 | 54 | 196 | 0.0 | 2.0 | 0.00 | 0.00 | 0.00 | 82 | 1015.9 |
| 20260505150410 | 54 | 196 | 0.0 | 2.0 | 0.00 | 0.00 | 0.00 | 83 | 1015.9 |
| 20260505140359 | 53 | 196 | 1.0 | 3.0 | 0.00 | 0.00 | 0.00 | 85 | 1015.5 |
| 20260505124900 | 53 | 255 | 0.0 | 2.0 | 0.00 | 0.00 | 0.00 | 85 | 1015.0 |
| 20260505124856 | 53 | 255 | 0.0 | 0.0 | 0.00 | 0.00 | 0.00 | 85 | 1015.0 |
| 20260505124509 | 53 | 255 | 0.0 | 2.0 | 0.00 | 0.00 | 0.00 | 85 | 1014.9 |
| 20260505123355 | 53 | 255 | 0.0 | 2.0 | 0.00 | 0.00 | 0.00 | 85 | 1014.9 |
| 20260505122856 | 53 | 255 | 0.0 | 2.0 | 0.00 | 0.00 | 0.00 | 85 | 1014.9 |
| 20260505122354 | 53 | 255 | 0.0 | 2.0 | 0.00 | 0.00 | 0.00 | 85 | 1014.8 |
| 20260505121856 | 53 | 255 | 0.0 | 2.0 | 0.00 | 0.00 | 0.00 | 85 | 1014.7 |
| 20260505121354 | 53 | 255 | 0.0 | 2.0 | 0.00 | 0.00 | 0.00 | 85 | 1014.8 |
| 20260505120853 | 53 | 255 | 0.0 | 2.0 | 0.00 | 0.00 | 0.00 | 85 | 1014.8 |
| 20260505120353 | 53 | 255 | 1.0 | 2.0 | 0.00 | 0.00 | 0.00 | 85 | 1014.8 |
| 20260505115853 | 53 | 257 | 0.0 | 2.0 | 0.00 | 0.00 | 0.00 | 85 | 1014.8 |
| 20260505115358 | 53 | 258 | 0.0 | 1.0 | 0.00 | 0.00 | 0.00 | 85 | 1014.8 |
| 20260505115352 | 53 | 258 | 0.0 | 1.0 | 0.00 | 0.00 | 0.00 | 85 | 1014.8 |
| 20260505115004 | 53 | 258 | 0.0 | 1.0 | 0.00 | 0.00 | 0.00 | 85 | 1014.8 |
| 20260505113851 | 53 | 259 | 0.0 | 2.0 | 0.00 | 0.00 | 0.00 | 85 | 1014.8 |
| 20260505113352 | 53 | 259 | 0.0 | 2.0 | 0.00 | 0.00 | 0.00 | 85 | 1014.8 |
| 20260505112852 | 53 | 259 | 1.0 | 3.0 | 0.00 | 0.00 | 0.00 | 85 | 1014.8 |
| 20260505112351 | 53 | 259 | 1.0 | 3.0 | 0.00 | 0.00 | 0.00 | 84 | 1014.7 |
| 20260505111851 | 53 | 234 | 1.0 | 5.0 | 0.00 | 0.00 | 0.00 | 85 | 1014.7 |
| 20260505111353 | 53 | 233 | 2.0 | 6.0 | 0.00 | 0.00 | 0.00 | 84 | 1014.7 |
| 20260505110850 | 53 | 266 | 2.0 | 6.0 | 0.00 | 0.00 | 0.00 | 84 | 1014.6 |
| 20260505110350 | 53 | 266 | 2.0 | 8.0 | 0.00 | 0.00 | 0.00 | 85 | 1014.6 |
| 20260505101845 | 53 | 261 | 1.0 | 5.0 | 0.00 | 0.00 | 0.00 | 85 | 1014.3 |
| 20260505101345 | 53 | 250 | 1.0 | 5.0 | 0.00 | 0.00 | 0.00 | 85 | 1014.3 |
| 20260505100842 | 53 | 257 | 2.0 | 7.0 | 0.00 | 0.00 | 0.00 | 85 | 1014.3 |
| 20260505100344 | 53 | 291 | 1.0 | 7.0 | 0.00 | 0.00 | 0.00 | 85 | 1014.3 |
| 20260505095843 | 53 | 254 | 1.0 | 4.0 | 0.00 | 0.00 | 0.00 | 85 | 1014.3 |
| 20260505095342 | 53 | 252 | 1.0 | 6.0 | 0.00 | 0.00 | 0.00 | 85 | 1014.3 |
| 20260505094843 | 53 | 250 | 1.0 | 6.0 | 0.00 | 0.00 | 0.00 | 85 | 1014.2 |
| 20260505094348 | 53 | 223 | 2.0 | 9.0 | 0.00 | 0.00 | 0.00 | 85 | 1014.2 |
| 20260505094343 | 53 | 250 | 2.0 | 7.0 | 0.00 | 0.00 | 0.00 | 85 | 1014.2 |
| 20260505093843 | 53 | 211 | 2.0 | 7.0 | 0.00 | 0.00 | 0.00 | 84 | 1014.2 |
| 20260505093446 | 53 | 257 | 2.0 | 9.0 | 0.00 | 0.00 | 0.00 | 85 | 1014.2 |
| 20260505092340 | 53 | 252 | 3.0 | 8.0 | 0.00 | 0.00 | 0.00 | 85 | 1014.2 |
| 20260505091844 | 53 | 268 | 2.0 | 6.0 | 0.00 | 0.00 | 0.00 | 86 | 1014.1 |
| 20260505091840 | 53 | 259 | 3.0 | 8.0 | 0.00 | 0.00 | 0.00 | 85 | 1014.2 |
| 20260505090836 | 52 | 247 | 2.0 | 6.0 | 0.00 | 0.00 | 0.00 | 86 | 1014.1 |
| 20260505090340 | 52 | 219 | 2.0 | 7.0 | 0.00 | 0.00 | 0.00 | 86 | 1014.1 |
| 20260505090336 | 52 | 257 | 2.0 | 6.0 | 0.00 | 0.00 | 0.00 | 86 | 1014.1 |
| 20260505085337 | 52 | 252 | 2.0 | 7.0 | 0.00 | 0.00 | 0.00 | 86 | 1014.0 |
| 20260505084837 | 52 | 291 | 1.0 | 4.0 | 0.00 | 0.00 | 0.00 | 87 | 1014.0 |
| 20260505084337 | 52 | 248 | 1.0 | 4.0 | 0.00 | 0.00 | 0.00 | 86 | 1014.0 |
| 20260505083837 | 52 | 254 | 1.0 | 6.0 | 0.00 | 0.00 | 0.00 | 86 | 1014.0 |
| 20260505083337 | 52 | 265 | 2.0 | 6.0 | 0.00 | 0.00 | 0.00 | 86 | 1013.9 |
| 20260505082837 | 52 | 260 | 2.0 | 6.0 | 0.00 | 0.00 | 0.00 | 86 | 1013.8 |
| 20260505082339 | 52 | 296 | 2.0 | 6.0 | 0.00 | 0.00 | 0.00 | 86 | 1013.8 |
| 20260505082335 | 52 | 254 | 2.0 | 7.0 | 0.00 | 0.00 | 0.00 | 86 | 1013.8 |
| 20260505081334 | 52 | 259 | 3.0 | 7.0 | 0.00 | 0.00 | 0.00 | 86 | 1013.7 |
| 20260505080835 | 52 | 232 | 2.0 | 8.0 | 0.00 | 0.00 | 0.00 | 86 | 1013.7 |
| 20260505080335 | 52 | 287 | 3.0 | 9.0 | 0.00 | 0.00 | 0.00 | 86 | 1013.7 |
| 20260505075834 | 52 | 313 | 3.0 | 9.0 | 0.00 | 0.00 | 0.00 | 86 | 1013.7 |
| 20260505075334 | 52 | 250 | 2.0 | 7.0 | 0.00 | 0.00 | 0.00 | 86 | 1013.6 |
| 20260505074836 | 53 | 271 | 2.0 | 7.0 | 0.00 | 0.00 | 0.00 | 86 | 1013.6 |
| 20260505074335 | 53 | 273 | 2.0 | 6.0 | 0.00 | 0.00 | 0.00 | 86 | 1013.6 |
| 20260505073838 | 53 | 250 | 2.0 | 7.0 | 0.00 | 0.00 | 0.00 | 85 | 1013.6 |
| 20260505073834 | 53 | 278 | 2.0 | 6.0 | 0.00 | 0.00 | 0.00 | 85 | 1013.6 |
| 20260505072834 | 53 | 287 | 2.0 | 7.0 | 0.00 | 0.00 | 0.00 | 85 | 1013.6 |
| 20260505072334 | 53 | 253 | 2.0 | 8.0 | 0.00 | 0.00 | 0.00 | 85 | 1013.5 |
| 20260505071834 | 53 | 259 | 2.0 | 8.0 | 0.00 | 0.00 | 0.00 | 85 | 1013.5 |
| 20260505071332 | 53 | 232 | 3.0 | 9.0 | 0.00 | 0.00 | 0.00 | 85 | 1013.5 |
| 20260505070832 | 53 | 270 | 3.0 | 9.0 | 0.00 | 0.00 | 0.00 | 85 | 1013.5 |
| 20260505070336 | 53 | 250 | 2.0 | 11.0 | 0.00 | 0.00 | 0.00 | 85 | 1013.4 |
| 20260505070332 | 53 | 261 | 3.0 | 11.0 | 0.00 | 0.00 | 0.00 | 85 | 1013.4 |
| 20260505065332 | 53 | 245 | 3.0 | 10.0 | 0.00 | 0.00 | 0.00 | 86 | 1013.5 |
| 20260505064834 | 53 | 211 | 4.0 | 10.0 | 0.00 | 0.00 | 0.00 | 86 | 1013.5 |
| 20260505064333 | 53 | 288 | 4.0 | 10.0 | 0.00 | 0.00 | 0.00 | 85 | 1013.4 |
| 20260505063834 | 53 | 263 | 3.0 | 10.0 | 0.00 | 0.00 | 0.00 | 85 | 1013.4 |
| 20260505063337 | 53 | 211 | 4.0 | 10.0 | 0.00 | 0.00 | 0.00 | 85 | 1013.3 |
| 20260505063333 | 53 | 220 | 3.0 | 9.0 | 0.00 | 0.00 | 0.00 | 86 | 1013.4 |
| 20260505062946 | 53 | 258 | 4.0 | 10.0 | 0.00 | 0.00 | 0.00 | 86 | 1013.4 |
| 20260505061833 | 53 | 247 | 4.0 | 10.0 | 0.00 | 0.00 | 0.00 | 86 | 1013.5 |
| 20260505061333 | 53 | 272 | 3.0 | 8.0 | 0.00 | 0.00 | 0.00 | 86 | 1013.4 |
| 20260505060832 | 53 | 230 | 3.0 | 12.0 | 0.00 | 0.00 | 0.00 | 87 | 1013.4 |
| 20260505060333 | 53 | 261 | 3.0 | 12.0 | 0.00 | 0.00 | 0.00 | 86 | 1013.4 |
| 20260505055832 | 53 | 277 | 4.0 | 9.0 | 0.00 | 0.00 | 0.00 | 86 | 1013.3 |
| 20260505055333 | 53 | 245 | 3.0 | 8.0 | 0.00 | 0.00 | 0.00 | 87 | 1013.2 |
| 20260505054833 | 53 | 215 | 2.0 | 8.0 | 0.00 | 0.00 | 0.00 | 87 | 1013.1 |
| 20260505054333 | 53 | 273 | 2.0 | 9.0 | 0.00 | 0.00 | 0.00 | 86 | 1013.2 |
| 20260505053833 | 53 | 262 | 3.0 | 10.0 | 0.00 | 0.00 | 0.00 | 86 | 1013.3 |
| 20260505053333 | 53 | 257 | 4.0 | 10.0 | 0.00 | 0.00 | 0.00 | 86 | 1013.3 |
| 20260505052833 | 53 | 265 | 4.0 | 15.0 | 0.00 | 0.00 | 0.00 | 86 | 1013.3 |
| 20260505052331 | 53 | 245 | 4.0 | 15.0 | 0.00 | 0.00 | 0.00 | 86 | 1013.3 |
| 20260505051833 | 53 | 232 | 4.0 | 13.0 | 0.00 | 0.00 | 0.00 | 86 | 1013.4 |
| 20260505051332 | 53 | 261 | 4.0 | 13.0 | 0.00 | 0.00 | 0.00 | 86 | 1013.4 |
| 20260505050837 | 53 | 265 | 3.0 | 9.0 | 0.00 | 0.00 | 0.00 | 86 | 1013.3 |
| 20260505050833 | 53 | 279 | 3.0 | 8.0 | 0.00 | 0.00 | 0.00 | 86 | 1013.3 |
| 20260505041327 | 53 | 287 | 4.0 | 11.0 | 0.00 | 0.00 | 0.00 | 84 | 1012.7 |
| 20260505041323 | 53 | 257 | 4.0 | 11.0 | 0.00 | 0.00 | 0.00 | 84 | 1012.6 |
| 20260505040327 | 54 | 244 | 4.0 | 10.0 | 0.00 | 0.00 | 0.00 | 83 | 1012.5 |
| 20260505040323 | 53 | 305 | 4.0 | 11.0 | 0.00 | 0.00 | 0.00 | 83 | 1012.5 |
| 20260505035323 | 54 | 190 | 4.0 | 9.0 | 0.00 | 0.00 | 0.00 | 83 | 1012.3 |
| 20260505034822 | 54 | 242 | 3.0 | 9.0 | 0.00 | 0.00 | 0.00 | 82 | 1012.3 |
| 20260505034322 | 54 | 306 | 3.0 | 11.0 | 0.00 | 0.00 | 0.00 | 82 | 1012.2 |
| 20260505033822 | 54 | 280 | 3.0 | 11.0 | 0.00 | 0.00 | 0.00 | 82 | 1012.2 |
| 20260505033323 | 54 | 253 | 4.0 | 10.0 | 0.00 | 0.00 | 0.00 | 82 | 1012.2 |
| 20260505032823 | 54 | 208 | 4.0 | 10.0 | 0.00 | 0.00 | 0.00 | 81 | 1012.2 |
| 20260505032324 | 55 | 233 | 3.0 | 9.0 | 0.00 | 0.00 | 0.00 | 81 | 1012.2 |
| 20260505031822 | 55 | 291 | 3.0 | 9.0 | 0.00 | 0.00 | 0.00 | 81 | 1012.1 |
| 20260505031323 | 55 | 272 | 3.0 | 10.0 | 0.00 | 0.00 | 0.00 | 80 | 1012.0 |
| 20260505030827 | 56 | 284 | 4.0 | 11.0 | 0.00 | 0.00 | 0.00 | 79 | 1012.0 |
| 20260505030823 | 55 | 294 | 3.0 | 11.0 | 0.00 | 0.00 | 0.00 | 80 | 1012.0 |
| 20260505030322 | 55 | 274 | 4.0 | 11.0 | 0.00 | 0.00 | 0.00 | 79 | 1012.0 |
| 20260505025323 | 56 | 269 | 4.0 | 13.0 | 0.00 | 0.00 | 0.00 | 78 | 1012.0 |
| 20260505024823 | 56 | 226 | 4.0 | 13.0 | 0.00 | 0.00 | 0.00 | 77 | 1011.9 |
| 20260505024328 | 58 | 223 | 4.0 | 12.0 | 0.00 | 0.00 | 0.00 | 76 | 1011.7 |
| 20260505024323 | 57 | 213 | 4.0 | 12.0 | 0.00 | 0.00 | 0.00 | 77 | 1011.8 |
| 20260505023940 | 59 | 239 | 5.0 | 15.0 | 0.00 | 0.00 | 0.00 | 74 | 1011.6 |
| 20260505023936 | 58 | 268 | 4.0 | 10.0 | 0.00 | 0.00 | 0.00 | 75 | 1011.7 |
| 20260505022823 | 58 | 286 | 5.0 | 14.0 | 0.00 | 0.00 | 0.00 | 75 | 1011.7 |
| 20260505022437 | 59 | 189 | 4.0 | 15.0 | 0.00 | 0.00 | 0.00 | 73 | 1011.6 |
| 20260505021322 | 59 | 285 | 5.0 | 13.0 | 0.00 | 0.00 | 0.00 | 73 | 1011.5 |
| 20260505020820 | 60 | 209 | 5.0 | 13.0 | 0.00 | 0.00 | 0.00 | 72 | 1011.6 |
| 20260505020320 | 60 | 246 | 4.0 | 13.0 | 0.00 | 0.00 | 0.00 | 71 | 1011.6 |
| 20260505015820 | 60 | 246 | 5.0 | 13.0 | 0.00 | 0.00 | 0.00 | 71 | 1011.6 |
| 20260505015321 | 61 | 254 | 4.0 | 12.0 | 0.00 | 0.00 | 0.00 | 71 | 1011.6 |
| 20260505014819 | 61 | 269 | 4.0 | 12.0 | 0.00 | 0.00 | 0.00 | 71 | 1011.6 |
| 20260505014319 | 61 | 277 | 4.0 | 13.0 | 0.00 | 0.00 | 0.00 | 70 | 1011.6 |
| 20260505013818 | 62 | 264 | 5.0 | 13.0 | 0.00 | 0.00 | 0.00 | 69 | 1011.5 |
| 20260505013323 | 62 | 226 | 5.0 | 11.0 | 0.00 | 0.00 | 0.00 | 70 | 1011.5 |
| 20260505013319 | 62 | 259 | 5.0 | 12.0 | 0.00 | 0.00 | 0.00 | 70 | 1011.6 |
| 20260505012323 | 63 | 256 | 5.0 | 12.0 | 0.00 | 0.00 | 0.00 | 68 | 1011.5 |
| 20260505012319 | 63 | 234 | 5.0 | 12.0 | 0.00 | 0.00 | 0.00 | 68 | 1011.6 |
| 20260505011319 | 64 | 248 | 4.0 | 12.0 | 0.00 | 0.00 | 0.00 | 67 | 1011.6 |
| 20260505010819 | 64 | 282 | 4.0 | 12.0 | 0.00 | 0.00 | 0.00 | 68 | 1011.5 |
| 20260505010320 | 64 | 259 | 4.0 | 12.0 | 0.00 | 0.00 | 0.00 | 67 | 1011.6 |
| 20260505005818 | 64 | 270 | 5.0 | 12.0 | 0.00 | 0.00 | 0.00 | 66 | 1011.5 |
| 20260505005319 | 65 | 263 | 4.0 | 11.0 | 0.00 | 0.00 | 0.00 | 66 | 1011.6 |
| 20260505004819 | 65 | 284 | 5.0 | 13.0 | 0.00 | 0.00 | 0.00 | 67 | 1011.5 |
| 20260505004320 | 65 | 290 | 4.0 | 13.0 | 0.00 | 0.00 | 0.00 | 67 | 1011.5 |
| 20260505003818 | 66 | 288 | 4.0 | 10.0 | 0.00 | 0.00 | 0.00 | 68 | 1011.4 |
| 20260505003319 | 66 | 299 | 4.0 | 9.0 | 0.00 | 0.00 | 0.00 | 67 | 1011.4 |
| 20260505002816 | 66 | 239 | 4.0 | 12.0 | 0.00 | 0.00 | 0.00 | 68 | 1011.4 |
| 20260505002316 | 66 | 314 | 4.0 | 12.0 | 0.00 | 0.00 | 0.00 | 67 | 1011.5 |
| 20260505001814 | 66 | 257 | 4.0 | 11.0 | 0.00 | 0.00 | 0.00 | 68 | 1011.4 |
| 20260505001314 | 66 | 213 | 5.0 | 14.0 | 0.00 | 0.00 | 0.00 | 67 | 1011.4 |
| 20260505000814 | 66 | 186 | 6.0 | 14.0 | 0.00 | 0.00 | 0.00 | 65 | 1011.5 |
| 20260505000312 | 67 | 257 | 6.0 | 13.0 | 0.00 | 0.00 | 0.00 | 65 | 1011.6 |
| 20260504235815 | 67 | 282 | 5.0 | 13.0 | 0.00 | 0.00 | 0.00 | 64 | 1011.6 |
| 20260504235811 | 67 | 290 | 6.0 | 11.0 | 0.00 | 0.00 | 0.00 | 64 | 1011.6 |
| 20260504234810 | 67 | 194 | 6.0 | 13.0 | 0.00 | 0.00 | 0.00 | 66 | 1011.6 |
| 20260504234309 | 68 | 257 | 5.0 | 13.0 | 0.00 | 0.00 | 0.00 | 64 | 1011.6 |
| 20260504233810 | 68 | 243 | 6.0 | 13.0 | 0.00 | 0.00 | 0.00 | 65 | 1011.6 |
| 20260504233309 | 67 | 218 | 7.0 | 14.0 | 0.00 | 0.00 | 0.00 | 64 | 1011.6 |
| 20260504232808 | 68 | 207 | 6.0 | 14.0 | 0.00 | 0.00 | 0.00 | 63 | 1011.6 |
| 20260504232309 | 69 | 277 | 5.0 | 12.0 | 0.00 | 0.00 | 0.00 | 64 | 1011.6 |
| 20260504231808 | 69 | 231 | 4.0 | 11.0 | 0.00 | 0.00 | 0.00 | 64 | 1011.6 |
| 20260504231308 | 69 | 264 | 5.0 | 12.0 | 0.00 | 0.00 | 0.00 | 64 | 1011.6 |
| 20260504230808 | 68 | 227 | 6.0 | 14.0 | 0.00 | 0.00 | 0.00 | 66 | 1011.7 |
| 20260504230308 | 68 | 225 | 6.0 | 14.0 | 0.00 | 0.00 | 0.00 | 64 | 1011.7 |
| 20260504225809 | 69 | 229 | 5.0 | 12.0 | 0.00 | 0.00 | 0.00 | 64 | 1011.7 |
| 20260504225314 | 69 | 293 | 5.0 | 11.0 | 0.00 | 0.00 | 0.00 | 65 | 1011.7 |
| 20260504225308 | 69 | 251 | 4.0 | 10.0 | 0.00 | 0.00 | 0.00 | 65 | 1011.7 |
| 20260504224808 | 69 | 283 | 4.0 | 10.0 | 0.00 | 0.00 | 0.00 | 66 | 1011.7 |
| 20260504223810 | 69 | 230 | 5.0 | 13.0 | 0.00 | 0.00 | 0.00 | 65 | 1011.8 |
| 20260504223806 | 69 | 248 | 5.0 | 11.0 | 0.00 | 0.00 | 0.00 | 68 | 1011.8 |
| 20260504222812 | 69 | 252 | 4.0 | 11.0 | 0.00 | 0.00 | 0.00 | 64 | 1011.8 |
| 20260504222807 | 69 | 241 | 5.0 | 13.0 | 0.00 | 0.00 | 0.00 | 64 | 1011.8 |
| 20260504221806 | 69 | 196 | 4.0 | 10.0 | 0.00 | 0.00 | 0.00 | 64 | 1011.8 |
| 20260504221307 | 69 | 205 | 5.0 | 10.0 | 0.00 | 0.00 | 0.00 | 66 | 1011.9 |
| 20260504220806 | 69 | 238 | 6.0 | 11.0 | 0.00 | 0.00 | 0.00 | 63 | 1011.9 |
| 20260504220310 | 69 | 220 | 5.0 | 11.0 | 0.00 | 0.00 | 0.00 | 64 | 1012.0 |
| 20260504220305 | 69 | 226 | 4.0 | 11.0 | 0.00 | 0.00 | 0.00 | 67 | 1012.0 |
| 20260504215304 | 69 | 267 | 4.0 | 10.0 | 0.00 | 0.00 | 0.00 | 67 | 1012.0 |
| 20260504214805 | 69 | 259 | 5.0 | 11.0 | 0.00 | 0.00 | 0.00 | 66 | 1012.0 |
| 20260504214305 | 69 | 176 | 6.0 | 12.0 | 0.00 | 0.00 | 0.00 | 64 | 1012.1 |
| 20260504213809 | 69 | 286 | 4.0 | 12.0 | 0.00 | 0.00 | 0.00 | 64 | 1012.2 |
| 20260504213805 | 69 | 222 | 5.0 | 12.0 | 0.00 | 0.00 | 0.00 | 63 | 1012.2 |
| 20260504212804 | 69 | 216 | 3.0 | 10.0 | 0.00 | 0.00 | 0.00 | 68 | 1012.3 |
| 20260504212309 | 69 | 287 | 5.0 | 13.0 | 0.00 | 0.00 | 0.00 | 66 | 1012.4 |
| 20260504212304 | 69 | 223 | 4.0 | 9.0 | 0.00 | 0.00 | 0.00 | 67 | 1012.2 |
| 20260504211803 | 69 | 244 | 4.0 | 9.0 | 0.00 | 0.00 | 0.00 | 69 | 1012.3 |
| 20260504211302 | 69 | 234 | 5.0 | 13.0 | 0.00 | 0.00 | 0.00 | 64 | 1012.3 |
| 20260504210302 | 70 | 285 | 4.0 | 10.0 | 0.00 | 0.00 | 0.00 | 66 | 1012.4 |
| 20260504205806 | 70 | 262 | 3.0 | 8.0 | 0.00 | 0.00 | 0.00 | 66 | 1012.5 |
| 20260504205802 | 69 | 273 | 4.0 | 10.0 | 0.00 | 0.00 | 0.00 | 68 | 1012.5 |
| 20260504204808 | 70 | 282 | 3.0 | 10.0 | 0.00 | 0.00 | 0.00 | 65 | 1012.7 |
| 20260504204802 | 70 | 265 | 3.0 | 8.0 | 0.00 | 0.00 | 0.00 | 65 | 1012.6 |
| 20260504203801 | 69 | 215 | 3.0 | 10.0 | 0.00 | 0.00 | 0.00 | 67 | 1012.7 |
| 20260504203307 | 69 | 229 | 3.0 | 10.0 | 0.00 | 0.00 | 0.00 | 62 | 1012.7 |
| 20260504203303 | 69 | 201 | 4.0 | 10.0 | 0.00 | 0.00 | 0.00 | 65 | 1012.7 |
| 20260504202915 | 69 | 293 | 3.0 | 9.0 | 0.00 | 0.00 | 0.00 | 65 | 1012.7 |
| 20260504201802 | 69 | 235 | 3.0 | 9.0 | 0.00 | 0.00 | 0.00 | 68 | 1012.7 |
| 20260504201303 | 69 | 257 | 3.0 | 9.0 | 0.00 | 0.00 | 0.00 | 66 | 1012.8 |
| 20260504200803 | 69 | 212 | 3.0 | 9.0 | 0.00 | 0.00 | 0.00 | 62 | 1012.7 |
| 20260504200259 | 68 | 254 | 2.0 | 6.0 | 0.00 | 0.00 | 0.00 | 68 | 1012.8 |
| 20260504195759 | 68 | 302 | 2.0 | 5.0 | 0.00 | 0.00 | 0.00 | 64 | 1012.8 |
| 20260504195305 | 68 | 232 | 2.0 | 5.0 | 0.00 | 0.00 | 0.00 | 63 | 1012.8 |
| 20260504195300 | 68 | 236 | 2.0 | 5.0 | 0.00 | 0.00 | 0.00 | 63 | 1012.8 |
| 20260504194300 | 68 | 253 | 2.0 | 5.0 | 0.00 | 0.00 | 0.00 | 72 | 1012.9 |
| 20260504193800 | 68 | 202 | 2.0 | 7.0 | 0.00 | 0.00 | 0.00 | 64 | 1012.9 |
| 20260504193259 | 68 | 304 | 1.0 | 7.0 | 0.00 | 0.00 | 0.00 | 69 | 1012.9 |
| 20260504192800 | 67 | 311 | 2.0 | 7.0 | 0.00 | 0.00 | 0.00 | 63 | 1012.9 |
| 20260504192300 | 67 | 288 | 2.0 | 7.0 | 0.00 | 0.00 | 0.00 | 67 | 1012.9 |
| 20260504191759 | 67 | 260 | 1.0 | 7.0 | 0.00 | 0.00 | 0.00 | 66 | 1012.9 |
| 20260504191259 | 67 | 218 | 2.0 | 7.0 | 0.00 | 0.00 | 0.00 | 66 | 1012.9 |
| 20260504190759 | 67 | 252 | 2.0 | 6.0 | 0.00 | 0.00 | 0.00 | 67 | 1013.1 |
| 20260504190304 | 66 | 187 | 2.0 | 5.0 | 0.00 | 0.00 | 0.00 | 69 | 1013.2 |
| 20260504190300 | 66 | 218 | 2.0 | 6.0 | 0.00 | 0.00 | 0.00 | 67 | 1013.1 |
| 20260504185300 | 66 | 158 | 2.0 | 5.0 | 0.00 | 0.00 | 0.00 | 70 | 1013.2 |
| 20260504184800 | 66 | 281 | 2.0 | 5.0 | 0.00 | 0.00 | 0.00 | 70 | 1013.3 |
| 20260504184301 | 66 | 215 | 2.0 | 5.0 | 0.00 | 0.00 | 0.00 | 70 | 1013.3 |
| 20260504183800 | 66 | 158 | 2.0 | 6.0 | 0.00 | 0.00 | 0.00 | 72 | 1013.3 |
| 20260504183300 | 65 | 111 | 3.0 | 7.0 | 0.00 | 0.00 | 0.00 | 73 | 1013.4 |
| 20260504182757 | 65 | 177 | 2.0 | 7.0 | 0.00 | 0.00 | 0.00 | 72 | 1013.3 |
| 20260504182257 | 64 | 166 | 2.0 | 5.0 | 0.00 | 0.00 | 0.00 | 73 | 1013.3 |
| 20260504181758 | 64 | 169 | 2.0 | 6.0 | 0.00 | 0.00 | 0.00 | 72 | 1013.3 |
| 20260504181257 | 63 | 198 | 2.0 | 6.0 | 0.00 | 0.00 | 0.00 | 72 | 1013.3 |